This is the latest recevied weather packets stored in our database for station/object W5COG. If no packets are shown the sender has not sent any weather packets the latest 1 day(s).
| Time | Temp. | Humidity | Pressure | Rain* | Wind** | Luminosity | Snow |
|---|---|---|---|---|---|---|---|
| 1778034028 | 10° C | 71% | 1011.8 hPa | 0 mm | 1.34 m/s, 30° | 0 W/m² | - |
| 1778033728 | 10° C | 72% | 1011.6 hPa | 0 mm | 0.89 m/s, 26° | 0 W/m² | - |
| 1778033428 | 10° C | 71% | 1011.5 hPa | 0 mm | 0.89 m/s, 44° | 0 W/m² | - |
| 1778032528 | 10° C | 70% | 1011.2 hPa | 0 mm | 2.24 m/s, 48° | 0 W/m² | - |
| 1778032228 | 10° C | 71% | 1011.1 hPa | 0 mm | 1.79 m/s, 37° | 0 W/m² | - |
| 1778031928 | 10° C | 72% | 1010.9 hPa | 0 mm | 1.79 m/s, 29° | 0 W/m² | - |
| 1778031629 | 10° C | 73% | 1010.8 hPa | 0 mm | 1.79 m/s, 39° | 0 W/m² | - |
| 1778031328 | 10° C | 72% | 1010.8 hPa | 0 mm | 2.24 m/s, 24° | 0 W/m² | - |
| 1778031028 | 10° C | 73% | 1010.6 hPa | 0 mm | 2.24 m/s, 55° | 0 W/m² | - |
| 1778030727 | 10° C | 74% | 1010.5 hPa | 0 mm | 2.68 m/s, 46° | 0 W/m² | - |
| 1778030427 | 10° C | 73% | 1010.4 hPa | 0 mm | 3.13 m/s, 53° | 1 W/m² | - |
| 1778030128 | 10° C | 74% | 1010.4 hPa | 0 mm | 2.24 m/s, 33° | 1 W/m² | - |
| 1778029828 | 10° C | 74% | 1010.3 hPa | 0 mm | 2.24 m/s, 47° | 1 W/m² | - |
| 1778029528 | 10° C | 74% | 1010.2 hPa | 0 mm | 2.24 m/s, 48° | 2 W/m² | - |
| 1778029228 | 10° C | 74% | 1010.2 hPa | 0 mm | 2.24 m/s, 44° | 2 W/m² | - |
| 1778028928 | 10° C | 73% | 1010.1 hPa | 0 mm | 2.68 m/s, 43° | 4 W/m² | - |
| 1778028628 | 10° C | 73% | 1010 hPa | 0 mm | 3.13 m/s, 46° | 4 W/m² | - |
| 1778028328 | 10° C | 73% | 1010.1 hPa | 0 mm | 2.24 m/s, 43° | 4 W/m² | - |
| 1778028028 | 10° C | 74% | 1010 hPa | 0 mm | 1.79 m/s, 33° | 6 W/m² | - |
| 1778027728 | 10° C | 73% | 1010 hPa | 0 mm | 1.79 m/s, 28° | 6 W/m² | - |
| 1778027428 | 10° C | 72% | 1010 hPa | 0 mm | 2.24 m/s, 32° | 8 W/m² | - |
| 1778027128 | 10° C | 72% | 1009.9 hPa | 0 mm | 1.79 m/s, 32° | 14 W/m² | - |
| 1778026828 | 10° C | 72% | 1010 hPa | 0 mm | 1.34 m/s, 28° | 19 W/m² | - |
| 1778026528 | 10° C | 73% | 1010 hPa | 0 mm | 1.79 m/s, 43° | 22 W/m² | - |
| 1778026228 | 10° C | 71% | 1009.9 hPa | 0 mm | 2.24 m/s, 30° | 28 W/m² | - |
* Rain latest hour (hover to see other rain measurements)
** Current wind speed in m/s (hover to see current wind gust speed)